Regional Weather Roundup
Issued by NWS Burlington, VT

Current Version | Previous Version | Graphics & Text | Print | Product List | Glossary Off
Versions: 1 2 3 4 5 6 7 8 9 10 11 12 13 14 15 16 17 18 19 20 21 22 23 24 25 26 27 28 29 30 31 32 33 34 35 36 37 38 39 40 41 42 43 44 45 46 47 48 49 50

000
ASUS41 KBTV 261230
RWRBTV
VERMONT REGIONAL WEATHER ROUNDUP
NATIONAL WEATHER SERVICE BURLINGTON VT
700 AM EST WED NOV 26 2014

NOTE: "FAIR" INDICATES FEW OR NO CLOUDS BELOW 12,000 FEET WITH NO
SIGNIFICANT WEATHER AND/OR OBSTRUCTIONS TO VISIBILITY.

* THESE REPORTS ARE NOT UNDER NWS QUALITY CONTROL AND/OR DO NOT
  REPORT WEATHER SUCH AS PRECIPITATION AND FOG.

VTZ001>019-261300-
_____VERMONT_____


CITY           SKY/WX    TMP DP  RH WIND       PRES   REMARKS
BURLINGTON     CLOUDY    36  22  56 NW6       30.22S
6HR MIN TEMP:  36; 6HR MAX TEMP:  41;

MONTPELIER     CLOUDY    31  21  66 W5        30.20F
6HR MIN TEMP:  31; 6HR MAX TEMP:  38;

ST. JOHNSBURY*   N/A     35  22  58 MISG      30.18S
6HR MIN TEMP:  35; 6HR MAX TEMP:  42;

LYNDONVILLE*   FAIR      32  20  61 NW5       30.20R
6HR MIN TEMP:  32; 6HR MAX TEMP:  38;

MIDDLEBURY*    FAIR      36  23  60 N6        30.23R
6HR MIN TEMP:  35; 6HR MAX TEMP:  40;

RUTLAND*       CLOUDY    34  25  69 CALM      30.20R
6HR MIN TEMP:  34; 6HR MAX TEMP:  39;

SPRINGFIELD    CLOUDY    35  27  72 CALM      30.19S
6HR MIN TEMP:  35; 6HR MAX TEMP:  41;

HIGHGATE*      CLOUDY    33  24  69 CALM      30.24R
6HR MIN TEMP:  33; 6HR MAX TEMP:  37;

NEWPORT*       CLOUDY    32  22  66 CALM      30.20R
6HR MIN TEMP:  32; 6HR MAX TEMP:  37;

BENNINGTON     CLOUDY    33  28  81 CALM      30.17S
6HR MIN TEMP:  33; 6HR MAX TEMP:  38;

SUTTON*          N/A     30 N/A N/A MISG        N/A
GALLUP MILLS*    N/A     30 N/A N/A MISG        N/A
UNION VILLAGE*   N/A     32 N/A N/A MISG        N/A

_____LAKE CHAMPLAIN_____


CITY           SKY/WX    TMP DP  RH WIND       PRES   REMARKS
BURTON ISLAND*   N/A     37  27  65 NW7         N/A
COLCHESTER RF*   N/A     37  27  65 NW9         N/A
DIAMOND ISL*     N/A     37  27  65 NW13        N/A

$$

NYZ007-026>031-035-052-083-261300-
_____NORTHERN NEW YORK_____


CITY           SKY/WX    TMP DP  RH WIND       PRES   REMARKS
PLATTSBURGH    CLOUDY    34  25  69 CALM      30.22R
6HR MIN TEMP:  33; 6HR MAX TEMP:  38;

SARANAC LAKE   CLOUDY    28  22  78 CALM      30.15R
6HR MIN TEMP:  28; 6HR MAX TEMP:  31;

MASSENA        CLOUDY    31  20  63 NW3       30.27R
6HR MIN TEMP:  31; 6HR MAX TEMP:  35;

OGDENSBURG*    SUNNY     30  23  74 N7        30.26R
POTSDAM*       CLOUDY    30  25  80 N5        30.25R
STARK FALLS*     N/A     28 N/A N/A W2          N/A
WATERTOWN      CLOUDY    34  24  67 NE3       30.24R
6HR MIN TEMP:  33; 6HR MAX TEMP:  38;

ALBANY         CLOUDY    37  27  67 NW3       30.22R
6HR MIN TEMP:  37; 6HR MAX TEMP:  41;

GLENS FALLS    CLOUDY    37  23  56 N6        30.20R
6HR MIN TEMP:  35; 6HR MAX TEMP:  40;


$$
NHZ002-005-011-261300-
_____NEW HAMPSHIRE_____


CITY           SKY/WX    TMP DP  RH WIND       PRES   REMARKS
LEBANON        CLOUDY    36  26  67 NE8       30.19R
6HR MIN TEMP:  30; 6HR MAX TEMP:  37;

KEENE          CLOUDY    34  30  86 CALM      30.19S
6HR MIN TEMP:  30; 6HR MAX TEMP:  36;

MT WASHINGTON  PTSUNNY   19   7  58 W35         N/A  WCI  -1
6HR MIN TEMP:  13; 6HR MAX TEMP:  20;

PLYMOUTH       FAIR      37  28  71 CALM      30.20R
6HR MIN TEMP:  31; 6HR MAX TEMP:  40;

WHITEFIELD     CLOUDY    33  21  61 W5        30.17S
6HR MIN TEMP:  33; 6HR MAX TEMP:  40;


$$

_____REGIONAL QUEBEC LOCATIONS_____


CITY           SKY/WX    TMP DP  RH WIND       PRES   REMARKS
MONTREAL       CLOUDY    30  18  59 W6        30.24R
QUEBEC CITY    PTSUNNY   30  25  80 W5        30.19S
SHERBROOKE     CLOUDY    32  25  74 W7        30.18F

_____REGIONAL ONTARIO LOCATIONS_____


CITY           SKY/WX    TMP DP  RH WIND       PRES   REMARKS
OTTAWA         PTSUNNY   25  18  74 W3        30.26R

______KEY______
VSB  - VISIBILITY IN MILES
WCI  - WIND CHILL INDEX
HX   - HEAT INDEX
$$
NNNN



USA.gov is the U.S. government's official web portal to all federal, state and local government web resources and services.